TimeEST,TemperatureF,Dew PointF,Humidity,Sea Level PressureIn,VisibilityMPH,Wind Direction,Wind SpeedMPH,Gust SpeedMPH,PrecipitationIn,Events,Conditions,WindDirDegrees,DateUTC
12:53 AM,37.9,33.1,83,30.09,8.0,Calm,Calm,-,N/A,,Overcast,0,2012-02-05 05:53:00
1:53 AM,37.0,34.0,89,30.08,7.0,Calm,Calm,-,0.00,,Overcast,0,2012-02-05 06:53:00
2:53 AM,37.0,34.0,89,30.07,5.0,East,3.5,-,0.00,Rain,Light Rain,90,2012-02-05 07:53:00
3:45 AM,37.4,33.8,87,30.06,5.0,Calm,Calm,-,0.00,,Overcast,0,2012-02-05 08:45:00
3:53 AM,37.0,34.0,89,30.06,5.0,Calm,Calm,-,0.00,,Overcast,0,2012-02-05 08:53:00
4:05 AM,37.4,33.8,87,30.06,5.0,Calm,Calm,-,N/A,,Overcast,0,2012-02-05 09:05:00
4:16 AM,37.4,33.8,87,30.06,4.0,Calm,Calm,-,N/A,,Overcast,0,2012-02-05 09:16:00
4:49 AM,37.4,33.8,87,30.07,3.0,Calm,Calm,-,N/A,,Overcast,0,2012-02-05 09:49:00
4:53 AM,37.0,34.0,89,30.07,3.0,Calm,Calm,-,N/A,,Overcast,0,2012-02-05 09:53:00
5:23 AM,37.4,35.6,93,30.06,2.5,Calm,Calm,-,N/A,,Overcast,0,2012-02-05 10:23:00
5:49 AM,35.6,33.8,93,30.05,1.8,Calm,Calm,-,N/A,,Overcast,0,2012-02-05 10:49:00
5:53 AM,36.0,35.1,97,30.07,1.8,Calm,Calm,-,N/A,,Overcast,0,2012-02-05 10:53:00
6:01 AM,35.6,35.6,100,30.06,2.0,North,3.5,-,N/A,,Overcast,10,2012-02-05 11:01:00
6:50 AM,35.6,33.8,93,30.08,3.0,Calm,Calm,-,N/A,,Overcast,0,2012-02-05 11:50:00
6:53 AM,36.0,34.0,93,30.08,3.0,NE,4.6,-,N/A,,Overcast,40,2012-02-05 11:53:00
7:30 AM,35.6,33.8,93,30.10,4.0,NE,4.6,-,N/A,,Overcast,40,2012-02-05 12:30:00
7:53 AM,36.0,33.1,89,30.11,6.0,NE,4.6,-,N/A,,Overcast,50,2012-02-05 12:53:00
8:53 AM,36.0,33.1,89,30.14,6.0,NE,3.5,-,N/A,,Overcast,40,2012-02-05 13:53:00
9:53 AM,36.0,32.0,86,30.16,9.0,ENE,3.5,-,N/A,,Overcast,60,2012-02-05 14:53:00
10:38 AM,37.4,33.8,87,30.16,10.0,Variable,5.8,-,N/A,,Overcast,0,2012-02-05 15:38:00
10:53 AM,37.0,33.1,86,30.17,10.0,NNE,4.6,-,N/A,,Overcast,30,2012-02-05 15:53:00
11:44 AM,39.2,32.0,75,30.15,10.0,Calm,Calm,-,N/A,,Overcast,0,2012-02-05 16:44:00
11:53 AM,39.0,30.9,73,30.15,10.0,Variable,3.5,-,N/A,,Overcast,0,2012-02-05 16:53:00
12:35 PM,39.2,30.2,70,30.15,10.0,Variable,3.5,-,N/A,,Overcast,0,2012-02-05 17:35:00
12:53 PM,41.0,28.9,62,30.16,10.0,Variable,3.5,-,N/A,,Overcast,0,2012-02-05 17:53:00
1:49 PM,42.8,28.4,57,30.14,10.0,Variable,4.6,-,N/A,,Overcast,0,2012-02-05 18:49:00
1:53 PM,42.1,28.0,58,30.15,10.0,Variable,5.8,-,N/A,,Mostly Cloudy,0,2012-02-05 18:53:00
2:14 PM,42.8,28.4,57,30.14,10.0,Variable,3.5,-,N/A,,Overcast,0,2012-02-05 19:14:00
2:53 PM,42.1,27.0,55,30.15,10.0,North,3.5,-,N/A,,Overcast,350,2012-02-05 19:53:00
3:53 PM,43.0,28.0,56,30.17,10.0,Variable,3.5,-,N/A,,Scattered Clouds,0,2012-02-05 20:53:00
4:14 PM,42.8,28.4,57,30.16,10.0,ENE,11.5,-,N/A,,Scattered Clouds,60,2012-02-05 21:14:00
4:53 PM,43.0,28.9,58,30.19,10.0,ENE,11.5,-,N/A,,Scattered Clouds,60,2012-02-05 21:53:00
5:53 PM,39.0,28.0,65,30.20,10.0,North,8.1,-,N/A,,Partly Cloudy,350,2012-02-05 22:53:00
6:53 PM,35.1,28.0,76,30.22,10.0,Calm,Calm,-,N/A,,Clear,0,2012-02-05 23:53:00
7:53 PM,33.1,26.1,75,30.24,10.0,Calm,Calm,-,N/A,,Clear,0,2012-02-06 00:53:00
8:53 PM,35.1,27.0,72,30.25,10.0,Calm,Calm,-,N/A,,Clear,0,2012-02-06 01:53:00
9:53 PM,30.9,26.1,82,30.25,10.0,Calm,Calm,-,N/A,,Clear,0,2012-02-06 02:53:00
10:53 PM,28.9,25.0,85,30.25,10.0,Calm,Calm,-,N/A,,Clear,0,2012-02-06 03:53:00
11:53 PM,28.9,25.0,85,30.24,10.0,Calm,Calm,-,N/A,,Clear,0,2012-02-06 04:53:00